Tracking 19634 objects as of 23-May-2019
HD Live streaming from Space Station
objects crossing your sky now

NATO 3C

Track NATO 3C now!
NATO 3C is classified as:


NORAD ID: 11115
Int'l Code: 1978-106A
Perigee: 36,280.4 km
Apogee: 36,325.1 km
Inclination: 13.6 °
Period: 1,462.2 minutes
Semi major axis: 42673 km
RCS: 7.0899 m2 (large)
Launch date: November 19, 1978
Source: North Atlantic Treaty Organization (NATO)
Launch site: AIR FORCE EASTERN TEST RANGE (AFETR)
aabbcc
Your satellite tracking list
Your tracking list is empty




NASA's NSSDC Master Catalog

Two Line Element Set (TLE):
1 11115U 78106A   19143.15344222 -.00000049  00000-0  00000+0 0  9995
2 11115  13.6009 335.8489 0005232 326.9861 212.0904  0.98483071629901
Source of the keplerian elements: AFSPC